Siemreap, Cambodia

5:57 AM +07 on September 21, 2017 (GMT +0700)
Siem Reap

Weather History for VDSR - June, 2014

Change the Weather History Date:

Friday, June 27, 2014

  Actual Average Record
Temperature  
Mean Temperature 86 °F -  
Max Temperature 93 °F - - ()
Min Temperature 78 °F - - ()
Cooling Degree Days 20    
Growing Degree Days 36 (Base 50)    
Moisture  
Dew Point 75 °F    
Average Humidity 72    
Maximum Humidity 94    
Minimum Humidity 52    
Precipitation  
Precipitation 0.00 in - - ()
Sea Level Pressure  
Sea Level Pressure 29.75 in    
Wind  
Wind Speed 6 mph ()    
Max Wind Speed 15 mph    
Max Gust Speed -    
Visibility 6.1 miles    
Events      
T = Trace of Precipitation, MM = Missing Value Source: Averaged Metar Reports

Daily Weather History Graph

Daily Weather History Graph

Search for Another Location

Airport or City:

Trip Planner

Search our weather history database for the weather conditions in past years. The results will help you decide how hot, cold, wet, or windy it might be!

Date:

Astronomy

Jun. 27, 2014 Rise Set
Actual Time 5:40 AM +07 6:34 PM +07
Civil Twilight 5:16 AM +07 6:58 PM +07
Nautical Twilight 4:49 AM +07 7:25 PM +07
Astronomical Twilight 4:20 AM +07 7:54 PM +07
Moon 5:29 AM +07 (6/27) 6:31 PM +07 (6/27)
Length of Visible Light 13h 41m
Length of Day
12h 54m
Waning Crescent, 0% of the Moon is Illuminated
Jun 27
Waning Crescent
Jun 27
New
Jul 5
First Quarter
Jul 12
Full
Jul 19
Last Quarter

Hourly Weather History & Observations

Time (+07) Temp. Heat Index Dew Point Humidity Pressure Visibility Wind Dir Wind Speed Gust Speed Precip Events Conditions
12:00 AM 78.8 °F - 75.2 °F 89% 29.80 in 5.0 mi Calm Calm - N/A   Scattered Clouds
12:30 AM 78.8 °F - 75.2 °F 89% 29.80 in 5.0 mi Calm Calm - N/A   Scattered Clouds
1:00 AM 78.8 °F - 75.2 °F 89% 29.80 in 5.0 mi Calm Calm - N/A   Scattered Clouds
7:00 AM 80.6 °F 87.1 °F 77.0 °F 89% 29.80 in 6.2 mi WSW 9.2 mph - N/A   Scattered Clouds
7:30 AM 78.8 °F - 77.0 °F 94% 29.80 in 6.2 mi WSW 8.1 mph - N/A   Scattered Clouds
8:00 AM 80.6 °F 86.2 °F 75.2 °F 84% 29.80 in 6.2 mi WSW 9.2 mph - N/A   Scattered Clouds
8:30 AM 80.6 °F 86.2 °F 75.2 °F 84% 29.80 in 6.2 mi West 6.9 mph - N/A   Scattered Clouds
9:00 AM 84.2 °F 92.3 °F 75.2 °F 74% 29.80 in 6.2 mi WNW 8.1 mph - N/A   Scattered Clouds
9:30 AM 86.0 °F 95.1 °F 75.2 °F 70% 29.80 in 6.2 mi West 11.5 mph - N/A   Scattered Clouds
10:00 AM 87.8 °F 97.6 °F 75.2 °F 66% 29.83 in 6.2 mi WNW 10.4 mph - N/A   Scattered Clouds
10:30 AM 87.8 °F 97.6 °F 75.2 °F 66% 29.83 in 6.2 mi West 9.2 mph - N/A   Scattered Clouds
11:00 AM 87.8 °F 97.6 °F 75.2 °F 66% 29.80 in 6.2 mi WNW 8.1 mph - N/A   Scattered Clouds
11:30 AM 87.8 °F 97.6 °F 75.2 °F 66% 29.80 in 6.2 mi WNW 8.1 mph - N/A   Scattered Clouds
12:00 PM 89.6 °F 99.8 °F 75.2 °F 62% 29.80 in 6.2 mi West 8.1 mph - N/A   Scattered Clouds
12:30 PM 89.6 °F 99.8 °F 75.2 °F 62% 29.77 in 6.2 mi West 9.2 mph - N/A   Scattered Clouds
2:00 PM 91.4 °F 102.5 °F 75.2 °F 59% 29.71 in 6.2 mi West 8.1 mph - N/A   Scattered Clouds
2:30 PM 91.4 °F 102.5 °F 75.2 °F 59% 29.71 in 6.2 mi West 8.1 mph - N/A   Scattered Clouds
3:00 PM 91.4 °F 100.1 °F 73.4 °F 55% 29.71 in 6.2 mi WNW 15.0 mph - N/A   Scattered Clouds
3:30 PM 93.2 °F 102.4 °F 73.4 °F 52% 29.68 in 6.2 mi WNW 13.8 mph - N/A   Scattered Clouds
4:00 PM 91.4 °F 102.5 °F 75.2 °F 59% 29.68 in 6.2 mi WNW 15.0 mph - N/A   Scattered Clouds
4:30 PM 91.4 °F 102.5 °F 75.2 °F 59% 29.68 in 6.2 mi WNW 9.2 mph - N/A   Scattered Clouds
5:00 PM 91.4 °F 102.5 °F 75.2 °F 59% 29.68 in 6.2 mi WNW 10.4 mph - N/A   Scattered Clouds
5:30 PM 91.4 °F 102.5 °F 75.2 °F 59% 29.68 in 6.2 mi West 9.2 mph - N/A   Scattered Clouds
6:00 PM 89.6 °F 99.8 °F 75.2 °F 62% 29.68 in 6.2 mi WNW 10.4 mph - N/A   Scattered Clouds
6:30 PM 89.6 °F 99.8 °F 75.2 °F 62% 29.68 in 6.2 mi WNW 10.4 mph - N/A   Partly Cloudy
7:00 PM 87.8 °F 97.6 °F 75.2 °F 66% 29.71 in 6.2 mi WSW 8.1 mph - N/A   Partly Cloudy
7:30 PM 86.0 °F 96.9 °F 77.0 °F 74% 29.71 in 6.2 mi SW 6.9 mph - N/A   Scattered Clouds
8:00 PM 86.0 °F 96.9 °F 77.0 °F 74% 29.71 in 6.2 mi SW 6.9 mph - N/A   Partly Cloudy
8:30 PM 86.0 °F 96.9 °F 77.0 °F 74% 29.74 in 6.2 mi SSW 11.5 mph - N/A   Scattered Clouds
9:00 PM 84.2 °F 94.1 °F 77.0 °F 79% 29.74 in 6.2 mi NNW 11.5 mph - N/A   Partly Cloudy
9:30 PM 82.4 °F 89.5 °F 75.2 °F 79% 29.74 in 6.2 mi WSW 9.2 mph - N/A   Partly Cloudy
10:00 PM 82.4 °F 89.5 °F 75.2 °F 79% 29.77 in 6.2 mi SW 9.2 mph - N/A   Partly Cloudy
10:30 PM 80.6 °F 86.2 °F 75.2 °F 84% 29.74 in 6.2 mi WSW 5.8 mph - N/A   Partly Cloudy
11:00 PM 80.6 °F 86.2 °F 75.2 °F 84% 29.74 in 6.2 mi SW 5.8 mph - N/A   Partly Cloudy
11:30 PM 80.6 °F 86.2 °F 75.2 °F 84% 29.74 in 6.2 mi SW 5.8 mph - N/A   Partly Cloudy